Location: Unspecified
(0.0000°N, 0.0000°E)
Time: 23:07:09
(UTC+00:00)

Vanguard 2 Rocket - Pass Details

Date: 08 December 2017
Orbit: 556 x 3326 km, 32.9° (Epoch: 19 January)

Event Time Altitude Azimuth Distance (km) Brightness Sun altitude
Rises 02:45:52 0° 315° (NW) 7,239 - -42.0°
Reaches altitude 10° 02:51:48 10° 323° (NW) 6,028 - -40.7°
Exits shadow 03:04:17 34° 2° (N) 3,661 9.6 -38.0°
Maximum altitude 03:07:29 37° 24° (NNE) 3,307 9.5 -37.3°
Drops below altitude 10° 03:17:39 10° 87° (E) 3,978 10.8 -35.1°
Sets 03:20:36 0° 96° (E) 4,626 11.4 -34.4°
